This is the latest recevied weather packets stored in our database for station/object N4OOJ-13. If no packets are shown the sender has not sent any weather packets the latest 10 day(s).
| Time | Temp. | Humidity | Pressure | Rain* | Wind** | Luminosity | Snow |
|---|---|---|---|---|---|---|---|
| 1777915221 | 27.22° C | 33% | 1019.4 hPa | 0 mm | - | - | - |
| 1777914616 | 27.22° C | 34% | 1019.5 hPa | 0 mm | - | - | - |
| 1777914017 | 27.22° C | 35% | 1019.6 hPa | 0 mm | - | - | - |
| 1777913424 | 26.67° C | 36% | 1019.7 hPa | 0 mm | - | - | - |
| 1777912817 | 27.22° C | 33% | 1019.9 hPa | 0 mm | - | - | - |
| 1777912224 | 26.67° C | 33% | 1020 hPa | 0 mm | - | - | - |
| 1777911625 | 27.22° C | 34% | 1020 hPa | 0 mm | - | - | - |
| 1777911019 | 27.22° C | 34% | 1020.1 hPa | 0 mm | - | - | - |
| 1777910427 | 26.11° C | 36% | 1020.2 hPa | 0 mm | - | - | - |
| 1777909827 | 26.11° C | 38% | 1020.2 hPa | 0 mm | - | - | - |
| 1777909217 | 25° C | 40% | 1020.4 hPa | 0 mm | - | - | - |
| 1777908630 | 26.11° C | 42% | 1020.2 hPa | 0 mm | - | - | - |
| 1777908029 | 25.56° C | 42% | 1020.1 hPa | 0 mm | - | - | - |
| 1777907428 | 25° C | 46% | 1020.3 hPa | 0 mm | - | - | - |
| 1777906822 | 24.44° C | 49% | 1020.4 hPa | 0 mm | - | - | - |
| 1777906233 | 24.44° C | 48% | 1020.4 hPa | 0 mm | - | - | - |
| 1777905621 | 23.33° C | 53% | 1020.4 hPa | 0 mm | - | - | - |
| 1777905034 | 23.33° C | 54% | 1020.5 hPa | 0 mm | - | - | - |
| 1777904433 | 22.78° C | 55% | 1020.5 hPa | 0 mm | - | - | - |
| 1777903816 | 22.22° C | 62% | 1020.5 hPa | 0 mm | - | - | - |
| 1777903216 | 22.22° C | 62% | 1020.6 hPa | 0 mm | - | - | - |
| 1777902615 | 22.78° C | 61% | 1020.6 hPa | 0 mm | - | - | - |
| 1777902027 | 21.67° C | 64% | 1020.6 hPa | 0 mm | - | - | - |
| 1777901426 | 21.67° C | 65% | 1020.6 hPa | 0 mm | - | - | - |
| 1777900820 | 21.11° C | 70% | 1020.7 hPa | 0 mm | - | - | - |
* Rain latest hour (hover to see other rain measurements)
** Current wind speed in m/s (hover to see current wind gust speed)